Chillicothe, MO

2:23 AM CDT on September 19, 2019 (GMT -0500)
Chillicothe

Weather History for KCDJ - July, 2019

Change the Weather History Date:

Saturday, July 13, 2019

  Actual Average (KIRK) Record (KIRK)
Temperature  
Mean Temperature 78 °F -  
Max Temperature 91 °F 88 °F 110 °F (1936)
Min Temperature 64 °F 67 °F -25 °F (1997)
Cooling Degree Days 12    
Growing Degree Days 28 (Base 50)    
Moisture  
Dew Point 67 °F    
Average Humidity 71    
Maximum Humidity 97    
Minimum Humidity 44    
Precipitation  
Precipitation 0.00 in - - ()
Sea Level Pressure  
Sea Level Pressure 30.00 in    
Wind  
Wind Speed 1 mph (South)    
Max Wind Speed 9 mph    
Max Gust Speed -    
Averages and records for this station are not official NWS values.
T = Trace of Precipitation, MM = Missing Value Source: NWS Daily Summary

Daily Weather History Graph

Daily Weather History Graph

Search for Another Location

Airport or City:

Astronomy

Jul. 13, 2019 Rise Set
Actual Time 5:57 AM CDT 8:42 PM CDT
Civil Twilight 5:25 AM CDT 9:14 PM CDT
Nautical Twilight 4:45 AM CDT 9:54 PM CDT
Astronomical Twilight 3:59 AM CDT 10:39 PM CDT
Moon 6:06 PM CDT (7/13) 3:17 AM CDT (7/13)
Length of Visible Light 15h 49m
Length of Day
14h 45m
Waxing Gibbous, 90% of the Moon is Illuminated
Jul 13
Waxing Gibbous
Jul 16
Full
Jul 24
Last Quarter
Jul 31
New
Aug 7
First Quarter

Hourly Weather History & Observations

Time (CDT) Temp. Heat Index Dew Point Humidity Pressure Visibility Wind Dir Wind Speed Gust Speed Precip Events Conditions
12:52 AM 69.1 °F - 66.0 °F 90% 29.94 in - Calm Calm - N/A   Unknown
1:52 AM 68.0 °F - 66.0 °F 93% 29.96 in - Calm Calm - N/A   Unknown
2:52 AM 66.9 °F - 64.9 °F 93% 29.98 in - Calm Calm - N/A   Unknown
3:52 AM 66.9 °F - 64.9 °F 93% 29.99 in - Calm Calm - N/A   Unknown
4:52 AM 66.0 °F - 64.0 °F 93% 29.98 in - Calm Calm - N/A   Unknown
5:52 AM 64.9 °F - 64.0 °F 97% 29.99 in - Calm Calm - N/A   Unknown
6:52 AM 69.1 °F - 66.0 °F 90% 30.01 in - Calm Calm - N/A   Unknown
7:52 AM 73.9 °F - 69.1 °F 85% 30.04 in - Calm Calm - N/A   Unknown
8:52 AM 80.1 °F 83.2 °F 70.0 °F 71% 30.05 in - Calm Calm - N/A   Unknown
9:52 AM 82.0 °F 85.9 °F 70.0 °F 67% 30.03 in - South 4.6 mph - N/A   Unknown
10:52 AM 84.9 °F 88.8 °F 69.1 °F 59% 30.02 in - Calm Calm - N/A   Unknown
12:52 PM 89.1 °F 92.9 °F 68.0 °F 50% 30.02 in - SSE 4.6 mph - N/A   Unknown
1:52 PM 91.0 °F 93.8 °F 66.0 °F 44% 30.00 in - Variable 5.8 mph - N/A   Unknown
2:52 PM 91.0 °F 93.8 °F 66.0 °F 44% 29.99 in - SSE 6.9 mph - N/A   Unknown
3:52 PM 91.0 °F 94.3 °F 66.9 °F 45% 29.98 in - South 8.1 mph - N/A   Unknown
4:52 PM 90.0 °F 92.8 °F 66.9 °F 46% 29.97 in - South 9.2 mph - N/A   Unknown
5:52 PM 90.0 °F 92.4 °F 66.0 °F 45% 29.97 in - South 4.6 mph - N/A   Unknown
6:52 PM 89.1 °F 91.3 °F 66.0 °F 46% 29.97 in - SSE 3.5 mph - N/A   Unknown
7:52 PM 87.1 °F 92.8 °F 71.1 °F 59% 29.98 in - Calm Calm - N/A   Unknown
8:52 PM 81.0 °F 84.9 °F 71.1 °F 72% 29.99 in - Calm Calm - N/A   Unknown
9:52 PM 75.9 °F - 70.0 °F 82% 30.00 in - Calm Calm - N/A   Unknown
10:52 PM 73.9 °F - 70.0 °F 87% 30.01 in - Calm Calm - N/A   Unknown
11:52 PM 73.0 °F - 69.1 °F 87% 30.02 in - Calm Calm - N/A   Unknown